STARLINK-1058 (44763 NORAD) Tracking and Keplerian Element Data

This shows tracking and keplerian element data for the satellite.

Feedback or suggestion? Click here.




ElementValue
Catalog44763
NameSTARLINK-1058
Epoch Orbit1035
Epoch Day17.91667824
Epoch Year2020
RAAN214.6422
Inclination53.0047
Eccentricity0.0002164
Argument of Perigee104.4952
Mean Anonmoly285.5751
Mean Motion15.05578041
Decay Rate0.00016872
L11 44763U 19074BC 20017.91667824 .00016872 00000-0 11744-2 0 9991
L22 44763 53.0047 214.6422 0002164 104.4952 285.5751 15.05578041 10352

Live tracking and technical data element details for STARLINK-1058 (NORAD 44763). STARLINK-1058 can be tracked NOW for your location showing map with azimuth and elevation plus other details from your city location.

Track the satellite on the map from your city or location and see movement details for azimuth, elevation, latitude, longitude, range, height, and movement on the map or in text.







IsCatalogInMostPopularTable: catalog: 44763, numindb: 15
Update: records affected: 1



GetName: 44763 STARLINK-1058

Hit Count: updated at: Sat, 18 Jan 2020 16:59:49 GMT